Total_Precipitation_Accumulation
0.08 0.08 0.07 0.06 0.04 0.04 0.02 0.03 0.04 0.02 0.02 0.02 0.02 0.02 0.01 0.02 0.02 0.02 0.01 0.01 0.01 0.01 0.01 0.01 0.01 0.02 0.00 0.00 0.00 0.00 0.00 0.00 0.00 0.00 0.00 0.00 0.00 0.00 0.00 0.00 0.00 0.00 0.00 0.00 0.00 0.00 0.03
0.17 0.14 0.11 0.09 0.08 0.06 0.06 0.07 0.05 0.04 0.03 0.03 0.02 0.02 0.01 0.02 0.02 0.02 0.01 0.01 0.01 0.01 0.01 0.01 0.01 0.02 0.00 0.00 0.00 0.00 0.00 0.00 0.00 0.00 0.00 0.00 0.00 0.00 0.00 0.00 0.00 0.00 0.00 0.00 0.00 0.00 0.01
0.23 0.19 0.19 0.18 0.15 0.14 0.12 0.11 0.08 0.06 0.04 0.04 0.03 0.02 0.02 0.02 0.02 0.01 0.01 0.01 0.01 0.01 0.01 0.01 0.01 0.02 0.00 0.00 0.00 0.00 0.00 0.00 0.00 0.00 0.00 0.00 0.00 0.00 0.00 0.00 0.00 0.00 0.00 0.00 0.00 0.00 0.02
0.36 0.34 0.33 0.32 0.31 0.29 0.25 0.21 0.19 0.16 0.12 0.09 0.06 0.03 0.02 0.01 0.01 0.01 0.01 0.01 0.01 0.01 0.01 0.01 0.02 0.01 0.00 0.00 0.00 0.00 0.00 0.00 0.00 0.00 0.00 0.00 0.00 0.00 0.00 0.00 0.00 0.00 0.00 0.01 0.01 0.00 0.01
0.44 0.37 0.33 0.33 0.32 0.28 0.27 0.24 0.21 0.16 0.13 0.10 0.06 0.03 0.02 0.01 0.02 0.02 0.01 0.01 0.01 0.01 0.01 0.01 0.01 0.00 0.00 0.00 0.00 0.00 0.00 0.00 0.00 0.00 0.00 0.00 0.00 0.00 0.00 0.00 0.00 0.00 0.00 0.00 0.01 0.01 0.01
0.60 0.49 0.42 0.40 0.37 0.34 0.31 0.28 0.23 0.19 0.16 0.12 0.08 0.05 0.03 0.03 0.03 0.02 0.01 0.01 0.01 0.01 0.01 0.00 0.00 0.00 0.00 0.00 0.00 0.00 0.00 0.00 0.00 0.00 0.00 0.00 0.00 0.00 0.00 0.00 0.01 0.00 0.00 0.00 0.00 0.00 0.00
0.70 0.56 0.47 0.42 0.34 0.29 0.25 0.22 0.19 0.15 0.11 0.07 0.05 0.04 0.03 0.04 0.04 0.02 0.00 0.00 0.00 0.00 0.00 0.00 0.00 0.00 0.00 0.00 0.00 0.00 0.00 0.00 0.00 0.01 0.00 0.00 0.00 0.00 0.00 0.00 0.00 0.00 0.00 0.00 0.00 0.00 0.00
0.81 0.61 0.51 0.45 0.37 0.31 0.25 0.26 0.20 0.14 0.08 0.06 0.04 0.03 0.03 0.04 0.05 0.02 0.01 0.00 0.00 0.00 0.00 0.00 0.00 0.00 0.00 0.00 0.00 0.00 0.00 0.00 0.01 0.05 0.03 0.00 0.00 0.00 0.00 0.00 0.00 0.00 0.00 0.00 0.00 0.00 0.00
0.78 0.61 0.54 0.52 0.44 0.39 0.35 0.32 0.24 0.14 0.09 0.06 0.04 0.02 0.03 0.05 0.04 0.01 0.00 0.00 0.00 0.00 0.01 0.00 0.00 0.00 0.00 0.00 0.00 0.00 0.00 0.00 0.00 0.02 0.07 0.02 0.00 0.00 0.00 0.00 0.00 0.00 0.00 0.00 0.00 0.00 0.00
1.02 0.92 0.80 0.72 0.60 0.48 0.42 0.33 0.22 0.15 0.11 0.07 0.04 0.03 0.04 0.06 0.01 0.00 0.00 0.00 0.00 0.00 0.01 0.00 0.00 0.00 0.00 0.00 0.00 0.00 0.00 0.00 0.00 0.01 0.06 0.08 0.00 0.00 0.00 0.00 0.00 0.00 0.00 0.00 0.00 0.00 0.00
1.24 1.17 1.01 0.88 0.71 0.53 0.42 0.34 0.25 0.15 0.08 0.06 0.05 0.05 0.07 0.06 0.02 0.01 0.00 0.00 0.00 0.02 0.01 0.00 0.00 0.00 0.00 0.00 0.00 0.00 0.00 0.00 0.00 0.00 0.05 0.06 0.03 0.02 0.00 0.00 0.00 0.01 0.00 0.00 0.00 0.00 0.01
0.96 0.93 0.92 0.81 0.66 0.55 0.46 0.35 0.21 0.12 0.10 0.10 0.08 0.09 0.14 0.08 0.04 0.01 0.01 0.02 0.09 0.05 0.00 0.00 0.00 0.00 0.00 0.00 0.00 0.00 0.00 0.00 0.00 0.00 0.00 0.00 0.01 0.01 0.01 0.00 0.01 0.00 0.01 0.00 0.00 0.00 0.02
0.95 0.94 0.83 0.65 0.51 0.46 0.41 0.31 0.22 0.15 0.13 0.13 0.10 0.13 0.16 0.06 0.03 0.01 0.02 0.18 0.22 0.04 0.00 0.00 0.00 0.00 0.00 0.00 0.00 0.00 0.00 0.00 0.00 0.00 0.00 0.00 0.00 0.00 0.00 0.00 0.01 0.02 0.07 0.06 0.06 0.03 0.01
0.66 0.63 0.51 0.42 0.36 0.33 0.28 0.23 0.18 0.16 0.15 0.19 0.15 0.21 0.15 0.07 0.03 0.06 0.15 0.34 0.12 0.00 0.00 0.00 0.00 0.00 0.00 0.00 0.00 0.00 0.00 0.00 0.00 0.00 0.00 0.01 0.02 0.00 0.00 0.00 0.01 0.01 0.05 0.09 0.14 0.09 0.06
0.44 0.48 0.42 0.34 0.28 0.26 0.23 0.22 0.17 0.18 0.20 0.25 0.33 0.29 0.22 0.08 0.03 0.10 0.39 0.44 0.04 0.01 0.00 0.00 0.00 0.00 0.00 0.00 0.00 0.00 0.00 0.00 0.00 0.00 0.01 0.02 0.00 0.00 0.00 0.00 0.02 0.09 0.10 0.07 0.18 0.11 0.09
0.47 0.41 0.38 0.35 0.35 0.24 0.20 0.19 0.25 0.25 0.28 0.39 0.49 0.47 0.17 0.06 0.12 0.41 0.66 0.26 0.00 0.00 0.00 0.00 0.00 0.00 0.00 0.00 0.00 0.00 0.01 0.02 0.03 0.01 0.00 0.04 0.08 0.01 0.00 0.01 0.01 0.08 0.21 0.49 0.55 0.35 0.16
0.64 0.43 0.36 0.37 0.40 0.35 0.29 0.25 0.26 0.37 0.37 0.58 1.01 0.92 0.18 0.10 0.58 0.93 0.62 0.10 0.00 0.00 0.00 0.00 0.00 0.00 0.00 0.00 0.00 0.00 0.04 0.13 0.08 0.06 0.02 0.02 0.06 0.06 0.04 0.03 0.04 0.10 0.28 0.49 0.45 0.17 0.21
0.77 0.71 0.60 0.51 0.38 0.38 0.43 0.42 0.38 0.45 0.64 1.10 1.70 1.16 0.28 0.34 0.88 0.62 0.22 0.02 0.00 0.00 0.00 0.00 0.00 0.00 0.00 0.00 0.00 0.00 0.00 0.03 0.02 0.04 0.10 0.14 0.12 0.05 0.01 0.00 0.00 0.07 0.15 0.33 0.62 0.38 0.23
0.73 0.62 0.65 0.85 0.76 0.62 0.60 0.66 0.55 0.57 0.91 1.46 2.11 1.05 0.83 0.78 1.00 0.32 0.11 0.05 0.01 0.00 0.00 0.01 0.00 0.01 0.01 0.00 0.03 0.01 0.01 0.01 0.01 0.04 0.10 0.08 0.19 0.17 0.09 0.11 0.08 0.09 0.17 0.29 0.46 0.56 0.45
0.77 0.54 0.45 0.64 0.75 0.83 0.89 0.85 0.83 0.82 1.14 1.92 2.62 1.80 1.86 1.22 0.31 0.36 0.47 0.24 0.06 0.05 0.09 0.09 0.03 0.05 0.05 0.07 0.05 0.04 0.02 0.03 0.05 0.06 0.12 0.14 0.08 0.11 0.13 0.22 0.29 0.20 0.14 0.21 0.69 0.98 0.60
0.80 0.65 0.47 0.55 0.62 0.79 0.89 1.11 1.13 1.18 1.48 2.99 3.77 1.48 0.80 0.88 0.41 0.21 0.29 0.31 0.18 0.21 0.16 0.08 0.21 0.26 0.20 0.15 0.13 0.10 0.11 0.09 0.10 0.09 0.20 0.32 0.20 0.08 0.04 0.02 0.10 0.19 0.18 0.16 0.26 0.34 0.51
0.85 0.71 0.56 0.55 0.57 0.78 1.00 1.03 1.22 1.48 2.13 4.15 3.63 0.92 0.29 0.16 0.19 0.28 0.35 0.19 0.10 0.13 0.14 0.20 0.27 0.10 0.07 0.13 0.14 0.21 0.24 0.26 0.30 0.31 0.37 0.54 0.38 0.14 0.07 0.03 0.03 0.03 0.04 0.20 0.22 0.17 0.20
0.83 0.71 0.63 0.57 0.52 0.62 0.94 1.08 1.18 1.60 3.09 5.02 2.91 0.71 0.59 0.36 0.17 0.28 0.21 0.14 0.13 0.07 0.11 0.14 0.21 0.13 0.07 0.17 0.18 0.22 0.17 0.20 0.25 0.35 0.48 0.52 0.67 0.47 0.21 0.06 0.06 0.03 0.01 0.04 0.12 0.22 0.33
0.68 0.66 0.65 0.59 0.52 0.53 0.74 1.05 1.13 1.62 2.68 3.08 2.12 0.91 1.22 0.86 0.26 0.13 0.07 0.08 0.11 0.09 0.10 0.06 0.16 0.43 0.24 0.07 0.10 0.16 0.25 0.20 0.22 0.24 0.34 0.56 0.50 0.56 0.38 0.17 0.23 0.06 0.06 0.05 0.13 0.33 0.40
0.58 0.57 0.70 0.74 0.66 0.57 0.63 0.93 1.05 1.34 1.77 1.87 1.73 1.40 1.42 0.92 0.22 0.10 0.09 0.12 0.12 0.19 0.17 0.11 0.09 0.22 0.24 0.20 0.33 0.29 0.23 0.29 0.22 0.22 0.25 0.33 0.49 0.61 0.54 0.50 0.22 0.11 0.14 0.28 0.31 0.34 0.19
0.63 0.65 0.71 0.79 0.71 0.64 0.58 0.83 1.04 1.06 1.31 1.53 1.43 1.43 2.25 1.63 0.52 0.10 0.15 0.16 0.22 0.24 0.33 0.22 0.34 0.31 0.33 0.59 0.70 0.54 0.35 0.23 0.23 0.26 0.18 0.32 0.41 0.69 0.47 0.70 0.53 0.68 0.25 0.16 0.36 0.36 0.12
0.75 0.71 0.76 0.79 0.68 0.65 0.58 0.72 0.89 0.79 0.93 1.30 1.37 1.29 2.44 2.48 0.64 0.26 0.29 0.31 0.38 0.38 0.39 0.42 0.56 0.46 0.55 0.79 0.95 0.97 0.54 0.23 0.37 0.59 0.32 0.27 0.33 0.39 0.39 0.57 0.56 0.42 0.22 0.18 0.28 0.41 0.03
0.80 0.82 0.88 0.94 0.88 0.71 0.66 0.59 0.76 0.73 0.84 1.22 1.19 1.26 2.02 2.04 0.68 0.47 0.29 0.23 0.25 0.34 0.59 0.58 0.91 0.89 0.64 0.63 0.54 0.61 0.71 0.37 0.61 1.01 0.47 0.46 0.41 0.38 0.52 0.74 0.58 0.07 0.20 0.33 0.39 0.12 0.03
0.68 0.72 0.83 0.76 0.88 0.72 0.72 0.69 0.78 0.89 1.03 1.25 1.35 1.06 1.50 2.11 1.14 0.47 0.25 0.15 0.07 0.06 0.19 0.44 0.65 0.70 0.76 0.61 0.36 0.35 0.42 0.45 0.56 0.74 0.74 1.20 0.95 0.97 0.63 0.57 0.32 0.16 0.20 0.21 0.10 0.14 0.12